TIME,DELAY(SENSOR),PRES,OXYGEN,RAWTEMP,T(OPTODE),TCPHASE,FLUOR,BETA(BETA700),BETA(BETA412),BETA(BETA440),CDOM,C(CSC),ED(ED411.90),ED(ED443.80),ED(ED489.40),ED(ED554.70),LU(LU412.20),LU(LU443.80),LU(LU489.40),LU(LU555.00),COMP,TILTX,TILTY,CHECK
1339884984,5803,848.8099975585938000,182.1687927246093800,476.2065124511719000,8.6230945587158200,39.2053718566894500,51,107,102,80,76,15447,2147446125,2147792256,2147580205,2147825618,2147307145,2147453440,2147758738,2148274550,948,6,14,62428
1339888580,5802,6.6999998092651370,218.3912963867187500,531.5853881835938000,6.8879389762878420,37.9405212402343750,50,107,103,79,74,15441,2147439350,2147797275,2147587419,2147828992,2147307136,2147447250,2147767716,2148279862,2042,6,15,40151
1339892180,5804,810.0000000000000000,227.9651031494140600,540.5202026367188000,6.6059489250183105,37.5730400085449200,51,107,103,79,77,15434,2147431259,2147798573,2147587602,2147834176,2147304192,2147445174,2147770505,2148278601,484,6,15,18804
1339895780,5803,965.0000000000000000,229.1147003173828000,542.1113891601562000,6.5556659698486330,37.5393905639648440,52,116,104,79,76,15429,2147434185,2147801773,2147587922,2147833865,2147304027,2147446217,2147769755,2148281554,246,6,15,32023
1339899380,5801,9.8999996185302730,230.5175018310547000,542.7296142578125000,6.5361251831054690,37.4754905700683600,52,105,103,80,76,15429,2147434788,2147798756,2147584310,2147835702,2147302720,2147445988,2147771794,2148282020,3357,6,14,15728
1339902980,5804,10.0000000000000000,228.5296020507812500,542.2808837890625000,6.5503058433532715,37.5738105773925800,50,108,103,80,76,15427,2147432475,2147798765,2147586742,2147834477,2147304009,2147447515,2147770733,2148281682,3430,6,15,13239
1339906580,5806,9.1000003814697270,230.5997009277343800,542.7816162109375000,6.5344829559326170,37.4720497131347660,51,108,103,80,76,15420,2147431396,2147795712,2147588434,2147832493,2147308086,2147447305,2147770779,2148280466,349,6,15,52331
1339910180,5805,1052.0000000000000000,229.4324035644531200,542.7855224609375000,6.5343589782714840,37.5349502563476560,51,108,102,79,75,15413,2147434294,2147799177,2147587620,2147831744,2147306523,2147446582,2147769938,2148281133,112,6,15,16512
1339913780,5804,10.8999996185302730,229.9902038574218800,542.8225097656250000,6.5331878662109375,37.5055809020996100,52,106,103,79,76,15422,2147432429,2147796370,2147585590,2147832374,2147301632,2147452187,2147768813,2148280832,3359,6,15,59969
1339917380,5806,10.8999996185302730,229.2384948730468800,542.9091796875000000,6.5304470062255860,37.5472297668457000,51,105,103,78,77,15409,2147431058,2147797549,2147583972,2147833929,2147304457,2147446473,2147772891,2148282587,200,6,14,50600
1339920980,5807,10.8999996185302730,229.2581939697265600,543.9760742187500000,6.4967141151428220,37.5659103393554700,51,107,102,78,77,15406,2147434523,2147796470,2147582628,2147831094,2147306249,2147446125,2147770550,2148281435,52,6,14,64087
1339924580,5805,10.5000000000000000,229.4730072021484400,544.8444824218750000,6.4692502021789550,37.5697898864746100,51,118,105,80,76,15408,2147430354,2147797805,2147585005,2147832886,2147306688,2147448128,2147770148,2148281490,166,6,15,30139
1339928180,5804,10.6000003814697270,231.1374969482422000,545.1077270507812000,6.4609260559082030,37.4857597351074200,51,107,101,78,77,15406,2147431725,2147801197,2147585334,2147831689,2147307090,2147446747,2147775579,2148282870,2247,6,14,9750
1339931780,5803,1030.0000000000000000,231.4031982421875000,545.1755981445312000,6.4587779045104980,37.4731597900390600,50,106,103,79,77,15406,2147434432,2147798500,2147585472,2147831332,2147304658,2147445193,2147773595,2148284672,899,6,15,25542
1339935380,5806,10.8000001907348630,231.8175964355468800,544.9425048828125000,6.4661498069763180,37.4466018676757800,50,106,102,78,75,15404,2147432338,2147799826,2147587812,2147833042,2147307529,2147448393,2147772406,2148282176,56,6,15,63941
1339938980,5803,10.8999996185302730,232.0625000000000000,545.6633911132812000,6.4433479309082030,37.4465599060058600,51,105,102,79,76,15404,2147436589,2147800905,2147586550,2147831661,2147307355,2147447524,2147769636,2148279396,129,6,15,40775
1339942580,5806,10.6000003814697270,231.4877014160156200,544.9207763671875000,6.4668369293212890,37.4637603759765600,50,161,103,78,77,15404,2147431515,2147800457,2147582838,2147831899,2147305810,2147446034,2147769920,2148281892,277,6,15,18036
1339946180,5805,1051.0000000000000000,231.3672943115234400,545.2957763671875000,6.4549770355224610,37.4765701293945300,50,108,103,79,76,15395,2147431570,2147800237,2147584155,2147832941,2147304713,2147448329,2147772452,2148280009,246,6,15,37252
1339949780,5805,10.1000003814697270,230.8688964843750000,545.2169189453125000,6.4574718475341800,37.5019798278808600,52,105,104,79,76,15401,2147433673,2147800649,2147586468,2147830656,2147306358,2147445632,2147767405,2148280310,187,6,15,6059
1339953380,5804,1115.0000000000000000,230.8386993408203000,544.1806030273438000,6.4902482032775880,37.4849395751953100,51,106,102,82,76,15394,2147431350,2147797193,2147583168,2147832758,2147306057,2147446966,2147769536,2148283712,3427,6,15,19111
1339956980,5806,11.1000003814697270,230.0057067871093800,543.6408081054688000,6.5073170661926270,37.5195503234863300,51,106,104,79,78,15392,2147434806,2147801051,2147586368,2147832274,2147305901,2147448210,2147769984,2148281828,81,6,15,38198
1339960580,5804,10.5000000000000000,230.6271972656250000,545.6881713867188000,6.4425640106201170,37.5233802795410160,51,107,103,79,77,15399,2147433426,2147798464,2147585252,2147833481,2147308178,2147448265,2147770898,2148282724,3529,6,15,43612
1339964180,5805,10.6999998092651370,231.0812988281250000,545.9636840820312000,6.4338459968566895,37.5040016174316400,51,106,103,79,77,15398,2147434102,2147798171,2147588233,2147834560,2147305874,2147447076,2147771163,2148279625,130,6,15,22146
1339967780,5799,10.1999998092651370,231.4691925048828000,546.9553222656250000,6.4024720191955570,37.5015296936035160,51,110,103,79,77,15394,2147430528,2147799853,2147588032,2147833609,2147308041,2147448566,2147771117,2148279296,772,6,15,6658
1339971380,5803,1028.0000000000000000,232.9727935791015600,549.0344848632812000,6.3366580009460450,37.4596290588378900,51,108,103,79,75,15393,2147432265,2147799451,2147586916,2147832758,2147304265,2147448539,2147772973,2148281298,2952,6,15,27164
1339974980,5803,103.0000000000000000,235.5045928955078000,548.5714721679688000,6.3513159751892090,37.3185882568359400,51,107,104,78,77,15390,2147429750,2147802267,2147586816,2147830930,2147306989,2147448274,2147775689,2148282313,3207,6,15,57806
1339978580,5802,10.8999996185302730,234.9001007080078000,548.0546264648438000,6.3676781654357910,37.3410797119140600,51,118,115,77,76,15390,2147429705,2147796470,2147586404,2147833581,2147303780,2147447469,2147773403,2148278729,109,6,15,16603
1339982180,5804,10.5000000000000000,233.6914978027343800,546.4135131835938000,6.4196147918701170,37.3743286132812500,52,107,103,77,76,15390,2147433444,2147798244,2147584685,2147833243,2147306477,2147451264,2147771638,2148276864,3213,6,15,13401
1339985780,5805,1008.0000000000000000,232.4622955322265600,546.1605224609375000,6.4276218414306640,37.4344291687011700,50,109,102,80,77,15393,2147432091,2147797238,2147584649,2147835638,2147306029,2147447149,2147771072,2148281152,3028,6,15,9779
1339989380,5807,11.8000001907348630,231.1054992675781200,546.0012207031250000,6.4326591491699220,37.5038414001464840,51,118,103,80,76,15390,2147432228,2147801755,2147584813,2147829558,2147306358,2147446153,2147769161,2148280256,8,6,15,45140
1339992980,5801,11.5000000000000000,230.2814941406250000,545.7733764648438000,6.4398689270019530,37.5435905456543000,51,106,104,79,77,15389,2147429010,2147799140,2147587474,2147834404,2147305837,2147445403,2147771291,2148281682,254,6,15,45049
1339996580,5804,11.6000003814697270,230.8825988769531200,545.2398071289062000,6.4567470550537110,37.5016708374023440,51,105,103,78,76,15384,2147432274,2147801984,2147586130,2147833078,2147306432,2147448146,2147765632,2148283456,258,6,15,43490
1340000180,5805,11.6000003814697270,231.3583068847656200,545.0927734375000000,6.4613990783691410,37.4739189147949200,51,106,103,78,76,15386,2147431049,2147800749,2147585746,2147834724,2147306093,2147446546,2147770432,2148283986,3307,6,15,30692
1340003780,5804,11.6999998092651370,231.2807006835937500,545.5524902343750000,6.4468560218811035,37.4857101440429700,51,108,102,78,76,15388,2147434797,2147802203,2147586642,2147828297,2147303460,2147449618,2147777152,2148282569,2625,6,15,64720
1340007380,5804,10.8000001907348630,232.7774963378906200,549.0463256835938000,6.3362851142883300,37.4704093933105500,51,104,103,77,77,15382,2147431049,2147800859,2147587803,2147832978,2147304054,2147447158,2147769673,2148280822,3547,6,15,11175
1340010980,5804,11.3999996185302730,234.3397979736328000,549.0512084960938000,6.3361282348632810,37.3882598876953100,51,105,103,79,77,15383,2147429568,2147799058,2147584283,2147833334,2147308644,2147446025,2147770742,2148280411,3343,6,15,26795
1340014580,5805,11.8999996185302730,234.0326995849609400,549.1513061523438000,6.3329601287841800,37.4055595397949200,51,104,103,79,76,15384,2147432064,2147800256,2147587876,2147833225,2147308635,2147447872,2147772928,2148280786,3312,6,15,37839
1340018180,5803,1026.0000000000000000,232.2586059570312500,548.1777954101562000,6.3637790679931640,37.4816398620605500,51,106,104,79,77,15379,2147432146,2147802761,2147587254,2147832859,2147303314,2147444763,2147775552,2148282944,155,6,15,5627
1340021780,5803,1013.0000000000000000,231.6721038818359400,546.8853759765625000,6.4046840667724610,37.4893989562988300,51,104,102,79,76,15378,2147432466,2147798518,2147584960,2147830464,2147307382,2147449142,2147770980,2148281051,3079,6,15,36804
1340025380,5805,1076.0000000000000000,232.0554962158203000,545.7725830078125000,6.4398941993713380,37.4489402770996100,52,109,103,78,77,15379,2147429741,2147800329,2147586605,2147832073,2147308946,2147447616,2147770249,2148281984,197,6,15,53986
1340028356,5805,71.0000000000000000,231.6811981201172000,546.9290161132812000,6.4033031463623050,37.4903717041015600,52,105,104,78,78,15377,2147431606,2147801444,2147588498,2147832877,2147305389,2147447744,2147776429,2148281106,455,6,15,30740
